North Bend, OR

8:54 PM PDT on August 26, 2016 (GMT -0700)
North Bend Municipal

Weather History for KOTH - August, 2013

Change the Weather History Date:

Tuesday, August 13, 2013

  Actual Average Record
Temperature  
Mean Temperature 59 °F 59 °F  
Max Temperature 70 °F 65 °F 90 °F (2002)
Min Temperature 48 °F 53 °F 35 °F (1904)
Degree Days  
Heating Degree Days 6 6  
Month to date heating degree days 31 78  
Since 1 June heating degree days 296 542  
Since 1 July heating degree days 126 275  
Cooling Degree Days 0 0  
Month to date cooling degree days 0 0  
Year to date cooling degree days 4 0  
Since 1 June cooling degree days 0 0  
Growing Degree Days 8 (Base 50)    
Moisture  
Dew Point 53 °F    
Average Humidity 85    
Maximum Humidity 100    
Minimum Humidity 53    
Precipitation  
Precipitation 0.00 in 0.02 in 0.37 in (1968)
Month to date precipitation 0.05 0.18  
Year to date precipitation 17.54 36.80  
Sea Level Pressure  
Sea Level Pressure 30.06 in    
Wind  
Wind Speed 6 mph (WNW)    
Max Wind Speed 15 mph    
Max Gust Speed 18 mph    
Visibility 10 miles    
Events      
T = Trace of Precipitation, MM = Missing Value Source: NWS Daily Summary

Daily Weather History Graph

Daily Weather History Graph

Search for Another Location

Airport or City:

Trip Planner

Search our weather history database for the weather conditions in past years. The results will help you decide how hot, cold, wet, or windy it might be!

Date:

Astronomy

Aug. 13, 2013 Rise Set
Actual Time 6:20 AM PDT 8:22 PM PDT
Civil Twilight 5:49 AM PDT 8:53 PM PDT
Nautical Twilight 5:10 AM PDT 9:31 PM PDT
Astronomical Twilight 4:28 AM PDT 10:13 PM PDT
Moon 1:35 PM PDT (8/13) 11:47 PM PDT (8/13)
Length of Visible Light 15h 04m
Length of Day
14h 02m
Waxing Crescent, 43% of the Moon is Illuminated
Aug 13
Waxing Crescent
Aug 14
First Quarter
Aug 20
Full
Aug 28
Last Quarter
Sep 5
New

Hourly Weather History & Observations

Time (PDT) Temp. Dew Point Humidity Pressure Visibility Wind Dir Wind Speed Gust Speed Precip Events Conditions
12:15 AM 53.6 °F 51.8 °F 94% 30.11 in 10.0 mi Calm Calm - N/A   Clear
12:35 AM 53.6 °F 51.8 °F 94% 30.11 in 10.0 mi SSE 3.5 mph - N/A   Clear
12:55 AM 51.8 °F 51.8 °F 100% 30.11 in 10.0 mi SE 3.5 mph - N/A   Clear
1:15 AM 53.6 °F 53.6 °F 100% 30.11 in 10.0 mi SE 3.5 mph - N/A   Clear
1:35 AM 51.8 °F 51.8 °F 100% 30.11 in 10.0 mi SE 3.5 mph - N/A   Clear
1:55 AM 51.8 °F 51.8 °F 100% 30.11 in 10.0 mi SE 4.6 mph - N/A   Clear
2:15 AM 51.8 °F 51.8 °F 100% 30.11 in 10.0 mi Calm Calm - N/A   Clear
2:35 AM 51.8 °F 51.8 °F 100% 30.11 in 10.0 mi Calm Calm - N/A   Clear
2:55 AM 51.8 °F 50.0 °F 94% 30.11 in 10.0 mi Calm Calm - N/A   Clear
3:15 AM 51.8 °F 51.8 °F 100% 30.11 in 10.0 mi SE 5.8 mph - N/A   Clear
3:35 AM 51.8 °F 51.8 °F 100% 30.11 in 10.0 mi SE 6.9 mph - N/A   Clear
3:55 AM 51.8 °F 51.8 °F 100% 30.11 in 10.0 mi ESE 4.6 mph - N/A   Clear
4:15 AM 51.8 °F 51.8 °F 100% 30.11 in 10.0 mi SE 4.6 mph - N/A   Clear
4:35 AM 50.0 °F 48.2 °F 94% 30.10 in 10.0 mi SE 4.6 mph - N/A   Clear
4:55 AM 51.8 °F 51.8 °F 100% 30.10 in 10.0 mi SSE 5.8 mph - N/A   Mostly Cloudy
5:15 AM 50.0 °F 50.0 °F 100% 30.10 in 10.0 mi SSE 4.6 mph - N/A   Scattered Clouds
5:35 AM 48.2 °F 48.2 °F 100% 30.09 in 10.0 mi SSE 4.6 mph - N/A   Clear
5:55 AM 50.0 °F 50.0 °F 100% 30.10 in 10.0 mi SSE 4.6 mph - N/A   Clear
6:15 AM 50.0 °F 50.0 °F 100% 30.10 in 10.0 mi SSE 5.8 mph - N/A   Clear
6:35 AM 50.0 °F 50.0 °F 100% 30.10 in 10.0 mi SSE 4.6 mph - N/A   Clear
6:55 AM 50.0 °F 50.0 °F 100% 30.10 in 10.0 mi SSE 3.5 mph - N/A   Clear
7:15 AM 51.8 °F 51.8 °F 100% 30.10 in 10.0 mi SSE 3.5 mph - N/A   Clear
7:35 AM 51.8 °F 51.8 °F 100% 30.10 in 10.0 mi SSE 3.5 mph - N/A   Clear
7:55 AM 53.6 °F 51.8 °F 94% 30.11 in 10.0 mi Calm Calm - N/A   Clear
8:15 AM 53.6 °F 53.6 °F 100% 30.10 in 10.0 mi Calm Calm - N/A   Clear
8:35 AM 55.4 °F 53.6 °F 94% 30.10 in 10.0 mi Calm Calm - N/A   Clear
8:55 AM 55.4 °F 53.6 °F 94% 30.10 in 10.0 mi Calm Calm - N/A   Clear
9:15 AM 57.2 °F 53.6 °F 88% 30.09 in 10.0 mi Calm Calm - N/A   Clear
9:35 AM 60.8 °F 53.6 °F 77% 30.08 in 10.0 mi Calm Calm - N/A   Clear
9:55 AM 62.6 °F 55.4 °F 77% 30.08 in 10.0 mi West 4.6 mph - N/A   Clear
10:15 AM 60.8 °F 55.4 °F 82% 30.07 in 10.0 mi West 6.9 mph - N/A   Clear
10:35 AM 62.6 °F 55.4 °F 77% 30.07 in 10.0 mi West 8.1 mph - N/A   Clear
10:55 AM 62.6 °F 55.4 °F 77% 30.07 in 10.0 mi WNW 8.1 mph - N/A   Clear
11:15 AM 64.4 °F 55.4 °F 73% 30.06 in 10.0 mi NW 5.8 mph - N/A   Clear
11:35 AM 66.2 °F 55.4 °F 68% 30.05 in 10.0 mi NW 5.8 mph - N/A   Clear
11:55 AM 68.0 °F 55.4 °F 64% 30.05 in 10.0 mi NW 6.9 mph - N/A   Clear
12:15 PM 69.8 °F 55.4 °F 60% 30.04 in 10.0 mi NNW 9.2 mph - N/A   Clear
12:35 PM 69.8 °F 55.4 °F 60% 30.04 in 10.0 mi NNW 9.2 mph - N/A   Clear
12:55 PM 68.0 °F 55.4 °F 64% 30.04 in 10.0 mi NNW 12.7 mph - N/A   Clear
1:15 PM 68.0 °F 53.6 °F 60% 30.04 in 10.0 mi NNW 10.4 mph - N/A   Clear
1:35 PM 69.8 °F 53.6 °F 56% 30.03 in 10.0 mi NNW 16.1 mph 19.6 mph N/A   Clear
1:55 PM 69.8 °F 51.8 °F 53% 30.03 in 10.0 mi North 15.0 mph 18.4 mph N/A   Clear
2:15 PM 69.8 °F 51.8 °F 53% 30.04 in 10.0 mi North 12.7 mph - N/A   Clear
2:35 PM 68.0 °F 51.8 °F 56% 30.04 in 10.0 mi NNW 11.5 mph - N/A   Clear
2:55 PM 68.0 °F 51.8 °F 56% 30.05 in 10.0 mi NNW 10.4 mph - N/A   Clear
3:15 PM 66.2 °F 53.6 °F 64% 30.04 in 10.0 mi NNW 11.5 mph - N/A   Clear
3:35 PM 66.2 °F 53.6 °F 64% 30.04 in 10.0 mi NNW 11.5 mph - N/A   Clear
3:55 PM 66.2 °F 53.6 °F 64% 30.04 in 10.0 mi NW 12.7 mph - N/A   Clear
4:15 PM 64.4 °F 53.6 °F 68% 30.05 in 10.0 mi NW 11.5 mph - N/A   Clear
4:35 PM 64.4 °F 55.4 °F 73% 30.05 in 10.0 mi NNW 9.2 mph - N/A   Clear
4:55 PM 64.4 °F 55.4 °F 73% 30.05 in 10.0 mi North 9.2 mph - N/A   Clear
5:15 PM 64.4 °F 55.4 °F 73% 30.04 in 10.0 mi NNW 9.2 mph - N/A   Clear
5:35 PM 64.4 °F 55.4 °F 73% 30.03 in 10.0 mi NNW 8.1 mph - N/A   Clear
5:55 PM 64.4 °F 55.4 °F 73% 30.02 in 10.0 mi NNW 4.6 mph - N/A   Clear
6:15 PM 64.4 °F 55.4 °F 73% 30.01 in 10.0 mi WNW 9.2 mph - N/A   Clear
6:35 PM 62.6 °F 55.4 °F 77% 30.01 in 10.0 mi NW 6.9 mph - N/A   Clear
6:55 PM 62.6 °F 55.4 °F 77% 30.01 in 10.0 mi NW 4.6 mph - N/A   Clear
7:15 PM 60.8 °F 55.4 °F 82% 30.01 in 10.0 mi NW 4.6 mph - N/A   Clear
7:35 PM 60.8 °F 57.2 °F 88% 30.01 in 10.0 mi WNW 4.6 mph - N/A   Clear
7:55 PM 57.2 °F 55.4 °F 94% 30.01 in 10.0 mi West 5.8 mph - N/A   Clear
8:15 PM 57.2 °F 55.4 °F 94% 30.01 in 10.0 mi West 5.8 mph - N/A   Clear
8:35 PM 57.2 °F 55.4 °F 94% 30.01 in 10.0 mi West 4.6 mph - N/A   Clear
8:55 PM 57.2 °F 55.4 °F 94% 30.01 in 10.0 mi Calm Calm - N/A   Clear
9:15 PM 57.2 °F 55.4 °F 94% 30.01 in 10.0 mi West 3.5 mph - N/A   Clear
9:35 PM 57.2 °F 55.4 °F 94% 30.02 in 10.0 mi West 4.6 mph - N/A   Clear
9:55 PM 57.2 °F 55.4 °F 94% 30.03 in 10.0 mi West 5.8 mph - N/A   Clear
10:15 PM 55.4 °F 55.4 °F 100% 30.03 in 10.0 mi WSW 4.6 mph - N/A   Scattered Clouds
10:35 PM 55.4 °F 53.6 °F 94% 30.04 in 10.0 mi Calm Calm - N/A   Scattered Clouds
10:55 PM 55.4 °F 53.6 °F 94% 30.04 in 10.0 mi West 4.6 mph - N/A   Overcast
11:15 PM 55.4 °F 55.4 °F 100% 30.03 in 10.0 mi Calm Calm - N/A   Overcast
11:35 PM 55.4 °F 53.6 °F 94% 30.03 in 10.0 mi Calm Calm - N/A   Overcast
11:55 PM 55.4 °F 55.4 °F 100% 30.03 in 10.0 mi SSE 4.6 mph - N/A   Overcast